Simultaneous Nadir Overpasses (SNOs) Predictions

Prediction of SNOs between METOP-B and TERRA Satellite Orbit:

Table of predicted SNOs for the next 14.0 days since TLE Epoch: 9/26/2016
Index Date (METOP-B) Time (METOP-B) Lat,Lon (METOP-B) SZA (METOP-B ) Date (TERRA) Time (TERRA) Lat,Lon (TERRA) SZA (TERRA ) Distance(km) Time Diff (sec)
1 09/26/2016 21:48:35 -81.27, 79.25 94.12 09/26/2016 21:49:32 -81.27, 79.36 94.08 1.88 57
2 09/26/2016 22:39:14 81.28,-112.76 85.98 09/26/2016 22:38:58 81.28,-112.89 85.96 2.18 16
3 09/29/2016 17:22:58 -81.28, 145.99 92.96 09/29/2016 17:23:47 -81.28, 145.88 92.95 1.94 49
4 09/29/2016 18:13:38 81.28, -46.41 87.09 09/29/2016 18:13:13 81.28, -46.39 87.08 0.35 25
5 10/02/2016 12:57:21 -81.28,-147.67 91.86 10/02/2016 12:58:01 -81.28,-147.69 91.84 0.44 40
6 10/
